SCP
0 -0 -0 -0 -0 -0 0 0 0 -0 0 0 0 0 0 0 0 -0 0 0 0 0 0 -0 -0 -0 -0 -0 -0 -0 -0 -0 -0 -0 -0 -0 -0 -0 -0 -0 -0 -0 -0 -0 -0 -0 -0 -0 -0
0 -0 -0 -0 0 0 0 -0 0 0 0 0 0 -0 -0 0 0 0 0 0 0 0 0 -0 -0 -0 -0 -0 -0 -0 -0 -0 -0 -0 -0 -0 -0 -0 -0 -0 -0 -0 -0 -0 -0 -0 -0 -0 0
-0 -0 -0 -0 0 0 0 0 -0 -0 0 0 -0 0 0 -0 0 -0 0 0 0 -0 -0 -0 -0 -0 -0 -0 -0 -0 -0 -0 -0 -0 -0 -0 -0 -0 -0 -0 -0 -0 -0 -0 -0 -0 0 -0 0
-0 -0 -0 0 0 0 0 0 -0 -0 -0 -0 0 0 -0 0 -0 0 0 -0 -0 -0 -0 -0 -0 -0 -0 -0 -0 -0 -0 -0 -0 -0 -0 -0 -0 -0 -0 -0 -0 -0 0 0 0 0 0 0 0
-0 0 0 0 0 0 0 0 -0 0 0 -0 -0 -0 0 -0 -0 -0 -0 0 0 0 0 0 -0 -0 -0 -0 -0 -0 -0 -0 0 0 0 0 0 -0 -0 -0 0 0 0 0 0 0 0 0 0
-0 0 0 0 0 0 0 0 0 0 0 0 0 0 0 0 0 0 0 0 0 0 0 0 0 0 0 -0 -0 -0 -0 -0 -0 0 0 0 0 0 0 0 0 0 0 0 0 0 0 0 0
0 0 0 0 0 0 0 0 0 0 0 0 0 0 0 0 0 0 0 0 0 0 -0 -0 0 0 0 0 0 0 0 0 0 0 0 0 0 0 0 0 0 0 0 0 0 0 0 0 0
0 0 0 0 0 0 0 0 0 0 0 -0 0 0 0 0 -0 0 0 0 0 0 0 0 0 0 0 0 0 0 0 0 0 0 0 0 0 0 0 0 0 0 0 0 0 0 0 0 0
0 0 0 0 0 0 0 0 0 0 0 0 0 0 0 -0 -0 -0 0 0 0 0 0 0 0 0 0 0 0 0 0 0 0 0 0 0 0 0 0 0 0 0 0 0 0 0 0 0 0
0 0 0 0 0 0 0 0 0 0 0 0 0 0 0 -0 -0 -0 -0 0 0 0 0 0 0 0 0 0 0 0 0 0 0 0 0 0 0 0 0 0 0 0 0 0 0 0 0 0 0
0 0 0 0 0 0 0 0 0 0 0 0 0 0 0 0 -0 0 0 0 0 0 0 0 0 0 0 0 0 0 0 0 0 0 0 0 0 0 0 0 0 0 0 0 0 0 0 0 0
0 0 0 0 0 0 0 0 0 0 0 0 0 0 0 0 0 0 0 0 0 0 0 0 0 0 0 0 0 0 0 0 0 0 0 0 0 0 0 0 0 0 0 0 0 0 0 0 0
0 0 0 0 0 0 0 0 0 0 0 0 0 0 0 0 0 0 0 0 0 0 0 0 0 0 0 0 0 0 0 0 0 0 0 0 0 0 0 0 0 0 0 0 0 0 0 0 0
0 0 0 0 0 0 0 0 0 0 0 0 0 0 0 0 0 0 0 0 0 0 0 0 0 0 0 0 0 0 0 0 0 0 0 0 0 0 0 0 0 0 0 0 0 0 0 0 0
0 0 0 0 0 0 0 0 0 0 0 0 0 0 0 0 0 0 0 0 0 0 0 0 0 0 0 0 0 0 0 0 0 0 0 0 0 0 0 0 0 0 0 0 0 0 0 0 0
0 0 0 0 0 0 0 0 0 0 0 0 0 0 0 0 0 0 0 0 0 0 0 0 0 0 0 0 0 0 0 0 0 0 0 0 0 0 0 0 0 0 0 0 0 0 0 0 0
0 0 0 0 0 0 0 0 0 0 0 0 0 0 0 0 0 0 0 0 0 0 0 0 0 0 0 0 0 0 0 0 0 0 0 0 0 0 0 0 0 0 0 0 0 0 0 0 0
0 0 0 0 0 0 0 0 0 0 0 0 0 0 0 0 0 0 0 0 0 0 0 0 0 0 0 0 0 0 0 0 0 0 0 0 0 0 0 0 0 0 0 0 0 0 0 0 0
0 0 0 0 0 0 0 0 0 0 0 0 0 0 0 0 0 0 0 0 0 0 0 0 0 0 0 0 0 0 0 0 0 0 0 0 0 0 0 0 0 0 0 0 0 0 0 0 0
0 0 0 0 0 0 0 0 0 0 0 0 0 0 0 0 0 0 0 0 0 0 0 0 0 0 0 0 0 0 0 0 0 0 0 0 0 0 0 0 0 0 0 0 0 0 0 0 0
0 0 0 0 0 0 0 0 0 0 0 0 0 0 0 0 0 0 0 0 0 0 0 0 0 0 0 0 0 0 0 0 0 0 0 0 0 0 0 0 0 0 0 0 0 0 0 0 0
0 0 0 0 0 0 0 0 0 0 0 0 0 0 0 0 0 0 0 0 0 0 0 0 0 0 0 0 0 0 0 0 0 0 0 0 0 0 0 0 0 0 0 0 0 0 0 0 0
0 0 0 0 0 0 0 0 0 0 0 0 0 0 0 0 0 0 0 0 0 0 0 0 0 0 0 0 0 0 0 -0 -0 -0 0 0 0 0 0 0 0 0 0 0 0 0 0 0 0
0 0 0 0 0 0 0 0 0 0 0 0 0 0 0 0 0 0 0 0 0 0 0 0 0 0 0 0 0 -0 -0 -0 0 0 0 0 0 0 0 0 0 0 0 0 0 0 0 0 0
0 0 0 0 0 0 0 0 0 0 0 0 0 0 0 0 0 0 0 0 0 0 0 0 0 0 0 0 0 0 0 0 0 0 0 0 0 0 0 0 0 0 0 0 0 0 0 0 0
0 0 0 0 0 0 0 0 0 0 0 0 0 0 0 0 0 0 0 0 0 0 0 0 0 0 0 0 0 0 0 0 0 0 0 0 0 0 0 0 0 0 0 0 0 0 0 0 0
0 0 0 0 0 0 0 0 0 0 0 0 0 0 0 0 0 0 0 0 0 0 0 0 0 0 0 0 0 0 0 0 0 0 0 0 0 0 0 0 0 0 0 0 0 0 0 0 0
0 0 0 0 0 0 0 0 0 0 0 0 0 0 0 0 0 0 0 0 0 0 0 0 0 0 0 0 0 0 0 0 0 0 0 0 0 0 0 0 0 0 0 0 0 0 0 0 0
0 0 0 0 0 0 0 0 0 0 0 0 0 0 0 0 0 0 0 0 0 0 0 0 0 0 0 0 0 0 0 0 0 0 0 0 0 0 0 0 0 0 0 0 0 0 0 0 -0
0 0 0 0 0 0 0 0 0 0 0 0 0 0 0 0 0 0 0 0 0 0 0 0 0 0 0 0 0 0 0 0 0 0 0 0 0 0 0 0 0 0 0 0 0 0 0 0 -0
Wind_Speed_500mb
4 1 1 4 7 9 2 1 3 3 2 2 3 3 6 6 6 3 11 4 6 18 32 33 32 31 29 28 27 22 16 10 4 1 1 4 7 5 2 6 10 14 13 12 11 10 9 9 9
4 4 5 6 9 7 5 6 3 2 0 3 4 4 5 2 7 6 9 6 9 14 27 30 30 28 26 26 24 19 17 11 7 3 3 3 3 4 7 9 12 15 14 13 9 8 7 8 8
6 7 4 8 6 7 6 6 4 1 4 3 4 6 4 6 11 7 12 9 10 10 20 25 27 26 25 23 21 18 17 13 8 6 6 5 6 8 10 13 14 15 15 16 9 7 6 6 5
5 4 11 9 7 3 1 4 4 2 4 8 5 6 5 8 6 8 14 14 10 7 13 23 25 26 25 23 21 18 17 13 10 9 9 9 10 12 10 14 15 15 17 20 12 9 8 9 8
6 7 8 8 1 1 6 5 2 2 2 5 6 4 6 13 11 9 11 15 13 6 8 15 26 27 25 24 23 22 20 17 14 12 11 11 9 11 14 16 17 17 19 20 13 11 9 10 10
7 7 9 4 3 3 3 4 1 4 4 4 5 4 9 15 10 7 5 8 11 8 3 6 15 27 28 27 26 25 24 21 19 16 14 12 11 12 12 15 17 19 19 20 13 10 9 10 9
11 7 9 10 4 1 5 1 3 4 5 6 4 4 10 13 12 3 1 2 2 5 4 4 8 15 26 28 27 27 27 26 23 20 18 16 17 16 15 16 16 17 18 19 16 15 14 13 8
8 11 8 4 6 5 2 5 3 5 2 3 4 3 2 17 5 3 7 8 6 4 4 6 9 14 19 27 30 31 32 28 26 25 23 22 22 21 21 20 18 18 18 18 16 14 14 14 11
6 8 5 12 12 6 2 3 3 5 2 4 5 9 8 18 14 11 12 10 12 13 14 15 17 17 18 23 28 32 31 26 24 25 27 26 27 26 25 24 24 23 22 20 18 17 14 13 12
8 7 13 10 9 7 3 2 7 2 6 3 6 8 5 9 11 10 13 13 16 21 24 23 23 22 21 21 24 29 28 27 24 25 28 28 27 30 25 25 23 22 27 22 21 19 17 15 14
5 8 8 5 10 6 7 2 3 3 4 4 5 8 13 13 9 5 2 4 6 6 12 21 25 26 26 25 22 23 25 23 27 29 28 29 31 31 28 27 27 28 27 28 27 24 19 19 19
4 1 4 1 5 5 4 3 7 7 8 6 6 6 5 5 6 5 5 7 9 11 10 12 20 26 28 28 25 21 19 21 22 25 24 28 30 31 29 31 28 31 29 30 30 33 30 23 22
4 1 5 9 14 15 9 14 9 3 8 15 14 6 3 7 9 12 12 13 13 14 15 16 18 21 27 31 30 22 17 12 13 19 28 26 25 30 28 33 30 29 29 35 33 31 31 27 25
5 5 13 16 15 12 9 5 8 14 21 17 10 4 5 6 7 10 12 10 11 11 12 13 13 12 14 25 31 25 17 12 6 8 13 17 20 24 29 33 34 31 29 30 32 32 33 34 33
4 5 13 5 5 7 11 4 7 22 20 9 7 8 10 14 15 12 10 11 11 11 9 6 9 9 6 19 30 30 25 17 13 9 8 9 12 13 12 17 24 26 27 25 30 33 37 37 34
5 8 5 5 1 0 9 8 5 17 7 2 4 5 6 10 13 13 12 13 15 16 15 14 8 3 9 22 33 33 25 18 9 7 9 13 16 19 19 21 25 27 24 26 29 28 35 36 39
11 6 7 12 3 3 5 9 13 4 5 9 7 4 5 8 11 14 14 15 15 18 21 23 21 20 22 24 26 25 22 15 7 7 11 11 13 11 14 12 13 14 18 20 23 31 36 35 38
12 8 8 10 5 5 5 15 11 11 6 11 9 10 11 13 20 23 24 25 25 25 27 32 35 35 33 32 32 33 27 20 13 6 7 8 14 19 18 21 22 22 23 22 19 23 28 27 32
11 9 11 6 5 5 12 12 12 8 14 15 15 16 17 23 28 30 32 35 36 34 35 34 36 40 34 31 27 27 20 18 12 6 5 6 5 7 13 20 25 25 27 28 24 22 25 28 35
7 8 11 8 6 6 9 17 6 2 5 11 21 22 24 30 32 37 41 44 46 47 48 47 46 44 42 40 40 38 34 31 25 22 15 13 5 3 7 12 18 21 19 23 26 28 27 31 36
9 13 10 12 2 4 2 12 7 2 8 16 19 23 27 33 37 39 43 48 52 57 58 58 57 53 49 45 41 38 35 34 28 25 22 21 17 14 10 7 6 7 10 16 21 26 29 30 33
12 17 13 10 8 9 2 9 7 7 8 14 25 31 32 33 37 39 42 47 50 53 48 44 42 41 40 36 32 28 27 26 28 24 24 22 21 20 20 19 17 16 17 14 16 18 21 23 25
11 11 14 7 7 4 6 2 12 7 13 17 30 34 36 35 36 41 42 43 42 39 38 35 34 33 31 27 24 23 25 29 28 26 22 24 23 21 21 22 23 23 25 25 25 26 29 29 27
18 13 12 9 6 4 15 15 8 11 13 11 34 45 44 43 40 41 42 39 34 30 30 28 25 25 22 20 24 26 29 28 23 22 19 18 18 19 20 21 22 24 24 26 28 28 28 28 27
3 13 2 3 2 12 3 6 13 10 10 10 42 64 56 48 45 43 43 38 33 25 21 19 17 16 14 12 15 17 18 16 14 13 13 12 15 19 21 22 24 26 28 28 29 31 32 34 35
15 14 10 15 8 5 4 12 10 4 4 6 28 60 58 55 49 45 42 36 30 25 21 13 8 7 11 13 13 15 14 11 10 11 13 16 19 21 23 25 27 28 29 32 34 36 38 40 41
14 11 8 13 4 5 9 9 6 3 3 8 37 60 66 63 58 51 44 36 29 23 19 15 10 11 14 13 11 10 9 8 9 9 12 17 20 21 24 26 28 30 33 35 39 42 45 47 51
7 14 5 4 5 10 6 7 9 11 16 11 25 55 70 64 60 54 46 39 32 27 22 17 16 14 13 12 10 6 4 5 8 11 14 17 20 23 25 26 29 32 37 42 46 50 55 59 62
7 7 4 7 7 10 4 9 11 15 18 28 38 62 72 68 63 57 49 41 34 30 25 22 21 20 20 19 13 6 3 3 8 13 18 21 25 28 31 32 35 39 44 49 54 61 66 70 73
5 15 14 9 11 4 3 11 1 9 20 40 48 69 69 67 64 60 53 46 42 38 32 29 28 28 25 22 16 11 9 9 13 18 22 26 31 34 36 38 41 46 50 56 62 67 72 76 79
Wind_Direction_500mb
339 359 354 94 60 65 23 85 269 6 18 18 70 77 129 111 139 135 5 83 52 163 178 177 176 176 177 175 179 188 194 195 195 143 69 100 127 146 42 16 356 353 1 8 24 34 34 38 42
69 78 93 92 83 70 291 274 167 238 6 90 100 69 66 42 45 56 40 56 55 145 180 182 182 185 183 183 186 196 201 207 209 240 285 281 276 310 333 332 349 353 357 1 6 16 21 17 16
81 64 73 86 101 146 167 226 243 341 47 88 101 65 60 18 37 57 39 69 62 121 171 189 191 193 192 195 201 209 207 207 229 267 286 285 293 299 305 325 351 350 349 349 343 338 344 333 336
53 75 65 78 100 211 47 300 226 17 67 49 63 64 66 29 40 56 54 55 53 112 157 189 201 204 204 205 206 208 209 220 247 268 283 287 291 296 312 331 344 343 346 342 334 324 321 317 319
66 66 57 83 67 235 260 291 165 65 87 61 53 358 64 48 65 61 49 42 40 68 158 191 205 211 213 214 217 220 224 235 251 260 267 272 281 310 320 328 332 335 343 354 339 322 319 318 318
77 79 68 151 221 282 276 336 211 107 58 66 67 64 74 67 50 46 38 32 45 57 119 196 210 219 223 223 225 230 236 243 253 255 260 264 263 295 307 322 326 329 337 349 345 332 325 323 325
101 78 157 155 182 130 196 3 165 85 55 59 32 86 133 30 13 44 233 201 88 80 114 199 233 232 233 232 234 233 238 244 251 252 253 253 260 282 289 302 311 318 326 340 347 340 336 333 336
95 92 116 185 176 188 340 134 124 75 99 26 30 50 40 331 7 196 209 222 209 204 208 231 240 237 235 237 237 238 240 245 243 246 247 251 253 269 274 284 293 301 312 321 341 337 339 332 327
93 67 151 185 156 189 98 120 178 327 180 337 58 55 282 285 278 246 219 227 232 241 238 231 225 231 239 238 236 242 247 240 245 247 253 250 252 259 267 276 284 293 301 309 324 334 335 321 311
81 103 205 188 187 156 117 128 300 126 337 102 130 349 302 272 244 237 235 255 252 250 248 244 239 235 230 236 237 237 241 235 244 253 254 257 260 275 278 279 280 289 295 297 307 320 323 310 297
120 163 187 213 193 176 143 251 243 187 117 146 318 55 83 78 78 76 25 323 307 288 253 244 241 238 237 228 230 236 232 226 230 242 253 257 253 259 271 275 282 286 296 306 305 303 311 311 299
79 178 207 268 193 171 171 253 267 240 143 281 235 132 42 25 4 349 317 295 290 291 290 270 244 239 240 237 224 225 230 227 233 242 247 264 265 267 275 275 277 280 293 297 304 312 310 302 301
119 314 235 268 266 267 235 247 251 345 202 159 153 159 344 351 339 332 322 308 293 281 278 280 278 266 249 236 226 213 222 229 230 243 251 254 259 267 269 275 279 286 292 296 295 304 314 313 300
178 253 277 280 262 253 200 190 186 128 148 147 157 107 38 22 8 337 310 306 301 299 286 276 273 273 256 231 218 202 202 208 222 186 215 243 262 271 278 275 273 286 297 295 293 296 301 305 300
146 304 322 294 279 227 169 126 208 150 160 106 47 20 10 10 6 355 358 6 10 6 4 327 287 278 237 188 185 185 191 193 189 194 198 227 245 255 261 259 274 269 278 289 294 298 295 296 291
69 52 353 284 257 259 152 247 126 160 237 22 67 67 22 9 17 31 33 37 42 39 35 37 44 108 154 166 172 178 179 179 179 227 256 272 270 257 254 252 255 253 260 269 269 286 288 288 283
8 226 213 313 258 142 169 248 152 338 217 128 125 110 64 57 61 66 72 76 78 74 75 77 84 99 109 127 142 147 142 145 176 253 274 282 288 308 297 302 311 268 266 274 268 277 284 286 280
194 208 236 228 202 149 176 262 144 33 154 136 134 117 106 92 80 82 87 91 97 98 98 95 93 93 103 114 120 120 127 131 149 174 259 286 291 307 312 313 315 322 320 314 303 292 282 289 294
140 170 218 215 234 165 223 251 283 108 124 145 150 138 117 101 94 98 99 99 99 103 102 101 97 93 94 98 103 113 115 102 111 70 47 40 346 311 300 300 308 311 303 300 303 314 319 310 305
141 161 246 293 217 155 267 257 242 85 170 187 166 149 133 119 116 110 107 107 106 103 101 101 98 99 99 97 92 92 92 94 86 81 75 78 64 4 308 292 291 291 304 300 302 302 306 310 314
206 193 198 215 42 199 338 276 214 67 124 153 165 157 149 140 130 118 113 107 104 101 100 100 97 93 89 85 86 89 92 94 95 89 80 67 57 49 42 31 358 328 309 305 311 309 303 303 301
216 199 173 167 131 232 145 274 280 179 179 187 176 172 163 154 141 132 123 117 110 104 97 91 91 90 86 82 83 86 86 81 80 73 71 68 62 54 50 44 35 28 23 11 2 354 344 331 318
234 134 160 140 153 120 222 145 259 155 227 200 197 185 173 164 157 143 132 125 115 106 102 91 81 79 82 81 76 63 60 78 80 75 63 53 44 41 36 32 29 22 21 20 16 12 10 5 355
150 81 56 58 97 253 218 183 245 203 208 159 180 189 182 175 166 152 141 133 124 116 106 94 73 66 76 77 75 66 65 71 68 60 48 45 40 36 32 28 23 20 17 15 13 11 5 5 1
142 115 59 341 287 233 44 164 250 223 201 185 184 185 181 179 176 163 153 147 138 129 111 100 88 71 79 85 90 83 81 77 63 61 53 52 42 30 24 19 16 11 10 6 2 359 356 353 350
189 167 167 198 201 245 47 229 251 77 113 225 193 184 179 184 181 173 166 158 154 155 141 138 120 121 132 137 124 109 98 85 69 51 39 23 17 13 9 2 360 357 354 353 351 348 345 342 338
185 197 158 106 43 66 215 283 263 110 91 146 175 186 186 188 185 180 174 172 176 171 164 171 180 175 163 154 132 114 92 66 48 36 18 6 1 356 355 350 349 347 345 344 342 340 337 335 331
179 153 93 5 196 248 247 251 230 215 206 180 181 190 191 190 190 187 184 185 189 191 190 193 196 196 189 185 171 158 114 59 21 9 352 348 342 340 335 333 331 332 333 333 332 330 330 328 327
155 174 69 133 153 187 231 247 209 195 177 192 199 194 194 194 195 195 195 199 200 205 208 209 209 215 212 201 198 200 259 327 332 337 337 334 333 331 328 327 328 329 329 328 328 328 328 327 324
195 188 165 166 211 250 167 247 222 249 201 189 193 196 196 197 199 203 205 209 214 219 221 223 217 221 216 217 217 229 262 294 317 324 325 326 326 326 324 322 322 324 325 326 325 325 325 325 323
Wind_Speed_850mb
4 1 1 4 7 9 2 1 3 3 2 2 3 3 6 6 6 3 11 4 6 18 32 33 32 31 29 28 27 22 16 10 4 1 1 4 7 5 2 6 10 14 13 12 11 10 9 9 9
4 4 5 6 9 7 5 6 3 2 0 3 4 4 5 2 7 6 9 6 9 14 27 30 30 28 26 26 24 19 17 11 7 3 3 3 3 4 7 9 12 15 14 13 9 8 7 8 8
6 7 4 8 6 7 6 6 4 1 4 3 4 6 4 6 11 7 12 9 10 10 20 25 27 26 25 23 21 18 17 13 8 6 6 5 6 8 10 13 14 15 15 16 9 7 6 6 5
5 4 11 9 7 3 1 4 4 2 4 8 5 6 5 8 6 8 14 14 10 7 13 23 25 26 25 23 21 18 17 13 10 9 9 9 10 12 10 14 15 15 17 20 12 9 8 9 8
6 7 8 8 1 1 6 5 2 2 2 5 6 4 6 13 11 9 11 15 13 6 8 15 26 27 25 24 23 22 20 17 14 12 11 11 9 11 14 16 17 17 19 20 13 11 9 10 10
7 7 9 4 3 3 3 4 1 4 4 4 5 4 9 15 10 7 5 8 11 8 3 6 15 27 28 27 26 25 24 21 19 16 14 12 11 12 12 15 17 19 19 20 13 10 9 10 9
11 7 9 10 4 1 5 1 3 4 5 6 4 4 10 13 12 3 1 2 2 5 4 4 8 15 26 28 27 27 27 26 23 20 18 16 17 16 15 16 16 17 18 19 16 15 14 13 8
8 11 8 4 6 5 2 5 3 5 2 3 4 3 2 17 5 3 7 8 6 4 4 6 9 14 19 27 30 31 32 28 26 25 23 22 22 21 21 20 18 18 18 18 16 14 14 14 11
6 8 5 12 12 6 2 3 3 5 2 4 5 9 8 18 14 11 12 10 12 13 14 15 17 17 18 23 28 32 31 26 24 25 27 26 27 26 25 24 24 23 22 20 18 17 14 13 12
8 7 13 10 9 7 3 2 7 2 6 3 6 8 5 9 11 10 13 13 16 21 24 23 23 22 21 21 24 29 28 27 24 25 28 28 27 30 25 25 23 22 27 22 21 19 17 15 14
5 8 8 5 10 6 7 2 3 3 4 4 5 8 13 13 9 5 2 4 6 6 12 21 25 26 26 25 22 23 25 23 27 29 28 29 31 31 28 27 27 28 27 28 27 24 19 19 19
4 1 4 1 5 5 4 3 7 7 8 6 6 6 5 5 6 5 5 7 9 11 10 12 20 26 28 28 25 21 19 21 22 25 24 28 30 31 29 31 28 31 29 30 30 33 30 23 22
4 1 5 9 14 15 9 14 9 3 8 15 14 6 3 7 9 12 12 13 13 14 15 16 18 21 27 31 30 22 17 12 13 19 28 26 25 30 28 33 30 29 29 35 33 31 31 27 25
5 5 13 16 15 12 9 5 8 14 21 17 10 4 5 6 7 10 12 10 11 11 12 13 13 12 14 25 31 25 17 12 6 8 13 17 20 24 29 33 34 31 29 30 32 32 33 34 33
4 5 13 5 5 7 11 4 7 22 20 9 7 8 10 14 15 12 10 11 11 11 9 6 9 9 6 19 30 30 25 17 13 9 8 9 12 13 12 17 24 26 27 25 30 33 37 37 34
5 8 5 5 1 0 9 8 5 17 7 2 4 5 6 10 13 13 12 13 15 16 15 14 8 3 9 22 33 33 25 18 9 7 9 13 16 19 19 21 25 27 24 26 29 28 35 36 39
11 6 7 12 3 3 5 9 13 4 5 9 7 4 5 8 11 14 14 15 15 18 21 23 21 20 22 24 26 25 22 15 7 7 11 11 13 11 14 12 13 14 18 20 23 31 36 35 38
12 8 8 10 5 5 5 15 11 11 6 11 9 10 11 13 20 23 24 25 25 25 27 32 35 35 33 32 32 33 27 20 13 6 7 8 14 19 18 21 22 22 23 22 19 23 28 27 32
11 9 11 6 5 5 12 12 12 8 14 15 15 16 17 23 28 30 32 35 36 34 35 34 36 40 34 31 27 27 20 18 12 6 5 6 5 7 13 20 25 25 27 28 24 22 25 28 35
7 8 11 8 6 6 9 17 6 2 5 11 21 22 24 30 32 37 41 44 46 47 48 47 46 44 42 40 40 38 34 31 25 22 15 13 5 3 7 12 18 21 19 23 26 28 27 31 36
9 13 10 12 2 4 2 12 7 2 8 16 19 23 27 33 37 39 43 48 52 57 58 58 57 53 49 45 41 38 35 34 28 25 22 21 17 14 10 7 6 7 10 16 21 26 29 30 33
12 17 13 10 8 9 2 9 7 7 8 14 25 31 32 33 37 39 42 47 50 53 48 44 42 41 40 36 32 28 27 26 28 24 24 22 21 20 20 19 17 16 17 14 16 18 21 23 25
11 11 14 7 7 4 6 2 12 7 13 17 30 34 36 35 36 41 42 43 42 39 38 35 34 33 31 27 24 23 25 29 28 26 22 24 23 21 21 22 23 23 25 25 25 26 29 29 27
18 13 12 9 6 4 15 15 8 11 13 11 34 45 44 43 40 41 42 39 34 30 30 28 25 25 22 20 24 26 29 28 23 22 19 18 18 19 20 21 22 24 24 26 28 28 28 28 27
3 13 2 3 2 12 3 6 13 10 10 10 42 64 56 48 45 43 43 38 33 25 21 19 17 16 14 12 15 17 18 16 14 13 13 12 15 19 21 22 24 26 28 28 29 31 32 34 35
15 14 10 15 8 5 4 12 10 4 4 6 28 60 58 55 49 45 42 36 30 25 21 13 8 7 11 13 13 15 14 11 10 11 13 16 19 21 23 25 27 28 29 32 34 36 38 40 41
14 11 8 13 4 5 9 9 6 3 3 8 37 60 66 63 58 51 44 36 29 23 19 15 10 11 14 13 11 10 9 8 9 9 12 17 20 21 24 26 28 30 33 35 39 42 45 47 51
7 14 5 4 5 10 6 7 9 11 16 11 25 55 70 64 60 54 46 39 32 27 22 17 16 14 13 12 10 6 4 5 8 11 14 17 20 23 25 26 29 32 37 42 46 50 55 59 62
7 7 4 7 7 10 4 9 11 15 18 28 38 62 72 68 63 57 49 41 34 30 25 22 21 20 20 19 13 6 3 3 8 13 18 21 25 28 31 32 35 39 44 49 54 61 66 70 73
5 15 14 9 11 4 3 11 1 9 20 40 48 69 69 67 64 60 53 46 42 38 32 29 28 28 25 22 16 11 9 9 13 18 22 26 31 34 36 38 41 46 50 56 62 67 72 76 79
Wind_Direction_850mb
339 359 354 94 60 65 23 85 269 6 18 18 70 77 129 111 139 135 5 83 52 163 178 177 176 176 177 175 179 188 194 195 195 143 69 100 127 146 42 16 356 353 1 8 24 34 34 38 42
69 78 93 92 83 70 291 274 167 238 6 90 100 69 66 42 45 56 40 56 55 145 180 182 182 185 183 183 186 196 201 207 209 240 285 281 276 310 333 332 349 353 357 1 6 16 21 17 16
81 64 73 86 101 146 167 226 243 341 47 88 101 65 60 18 37 57 39 69 62 121 171 189 191 193 192 195 201 209 207 207 229 267 286 285 293 299 305 325 351 350 349 349 343 338 344 333 336
53 75 65 78 100 211 47 300 226 17 67 49 63 64 66 29 40 56 54 55 53 112 157 189 201 204 204 205 206 208 209 220 247 268 283 287 291 296 312 331 344 343 346 342 334 324 321 317 319
66 66 57 83 67 235 260 291 165 65 87 61 53 358 64 48 65 61 49 42 40 68 158 191 205 211 213 214 217 220 224 235 251 260 267 272 281 310 320 328 332 335 343 354 339 322 319 318 318
77 79 68 151 221 282 276 336 211 107 58 66 67 64 74 67 50 46 38 32 45 57 119 196 210 219 223 223 225 230 236 243 253 255 260 264 263 295 307 322 326 329 337 349 345 332 325 323 325
101 78 157 155 182 130 196 3 165 85 55 59 32 86 133 30 13 44 233 201 88 80 114 199 233 232 233 232 234 233 238 244 251 252 253 253 260 282 289 302 311 318 326 340 347 340 336 333 336
95 92 116 185 176 188 340 134 124 75 99 26 30 50 40 331 7 196 209 222 209 204 208 231 240 237 235 237 237 238 240 245 243 246 247 251 253 269 274 284 293 301 312 321 341 337 339 332 327
93 67 151 185 156 189 98 120 178 327 180 337 58 55 282 285 278 246 219 227 232 241 238 231 225 231 239 238 236 242 247 240 245 247 253 250 252 259 267 276 284 293 301 309 324 334 335 321 311
81 103 205 188 187 156 117 128 300 126 337 102 130 349 302 272 244 237 235 255 252 250 248 244 239 235 230 236 237 237 241 235 244 253 254 257 260 275 278 279 280 289 295 297 307 320 323 310 297
120 163 187 213 193 176 143 251 243 187 117 146 318 55 83 78 78 76 25 323 307 288 253 244 241 238 237 228 230 236 232 226 230 242 253 257 253 259 271 275 282 286 296 306 305 303 311 311 299
79 178 207 268 193 171 171 253 267 240 143 281 235 132 42 25 4 349 317 295 290 291 290 270 244 239 240 237 224 225 230 227 233 242 247 264 265 267 275 275 277 280 293 297 304 312 310 302 301
119 314 235 268 266 267 235 247 251 345 202 159 153 159 344 351 339 332 322 308 293 281 278 280 278 266 249 236 226 213 222 229 230 243 251 254 259 267 269 275 279 286 292 296 295 304 314 313 300
178 253 277 280 262 253 200 190 186 128 148 147 157 107 38 22 8 337 310 306 301 299 286 276 273 273 256 231 218 202 202 208 222 186 215 243 262 271 278 275 273 286 297 295 293 296 301 305 300
146 304 322 294 279 227 169 126 208 150 160 106 47 20 10 10 6 355 358 6 10 6 4 327 287 278 237 188 185 185 191 193 189 194 198 227 245 255 261 259 274 269 278 289 294 298 295 296 291
69 52 353 284 257 259 152 247 126 160 237 22 67 67 22 9 17 31 33 37 42 39 35 37 44 108 154 166 172 178 179 179 179 227 256 272 270 257 254 252 255 253 260 269 269 286 288 288 283
8 226 213 313 258 142 169 248 152 338 217 128 125 110 64 57 61 66 72 76 78 74 75 77 84 99 109 127 142 147 142 145 176 253 274 282 288 308 297 302 311 268 266 274 268 277 284 286 280
194 208 236 228 202 149 176 262 144 33 154 136 134 117 106 92 80 82 87 91 97 98 98 95 93 93 103 114 120 120 127 131 149 174 259 286 291 307 312 313 315 322 320 314 303 292 282 289 294
140 170 218 215 234 165 223 251 283 108 124 145 150 138 117 101 94 98 99 99 99 103 102 101 97 93 94 98 103 113 115 102 111 70 47 40 346 311 300 300 308 311 303 300 303 314 319 310 305
141 161 246 293 217 155 267 257 242 85 170 187 166 149 133 119 116 110 107 107 106 103 101 101 98 99 99 97 92 92 92 94 86 81 75 78 64 4 308 292 291 291 304 300 302 302 306 310 314
206 193 198 215 42 199 338 276 214 67 124 153 165 157 149 140 130 118 113 107 104 101 100 100 97 93 89 85 86 89 92 94 95 89 80 67 57 49 42 31 358 328 309 305 311 309 303 303 301
216 199 173 167 131 232 145 274 280 179 179 187 176 172 163 154 141 132 123 117 110 104 97 91 91 90 86 82 83 86 86 81 80 73 71 68 62 54 50 44 35 28 23 11 2 354 344 331 318
234 134 160 140 153 120 222 145 259 155 227 200 197 185 173 164 157 143 132 125 115 106 102 91 81 79 82 81 76 63 60 78 80 75 63 53 44 41 36 32 29 22 21 20 16 12 10 5 355
150 81 56 58 97 253 218 183 245 203 208 159 180 189 182 175 166 152 141 133 124 116 106 94 73 66 76 77 75 66 65 71 68 60 48 45 40 36 32 28 23 20 17 15 13 11 5 5 1
142 115 59 341 287 233 44 164 250 223 201 185 184 185 181 179 176 163 153 147 138 129 111 100 88 71 79 85 90 83 81 77 63 61 53 52 42 30 24 19 16 11 10 6 2 359 356 353 350
189 167 167 198 201 245 47 229 251 77 113 225 193 184 179 184 181 173 166 158 154 155 141 138 120 121 132 137 124 109 98 85 69 51 39 23 17 13 9 2 360 357 354 353 351 348 345 342 338
185 197 158 106 43 66 215 283 263 110 91 146 175 186 186 188 185 180 174 172 176 171 164 171 180 175 163 154 132 114 92 66 48 36 18 6 1 356 355 350 349 347 345 344 342 340 337 335 331
179 153 93 5 196 248 247 251 230 215 206 180 181 190 191 190 190 187 184 185 189 191 190 193 196 196 189 185 171 158 114 59 21 9 352 348 342 340 335 333 331 332 333 333 332 330 330 328 327
155 174 69 133 153 187 231 247 209 195 177 192 199 194 194 194 195 195 195 199 200 205 208 209 209 215 212 201 198 200 259 327 332 337 337 334 333 331 328 327 328 329 329 328 328 328 328 327 324
195 188 165 166 211 250 167 247 222 249 201 189 193 196 196 197 199 203 205 209 214 219 221 223 217 221 216 217 217 229 262 294 317 324 325 326 326 326 324 322 322 324 325 326 325 325 325 325 323